Regional Weather Roundup
Issued by NWS

Home | Current Version | Previous Version | Graphics & Text | Print | Product List | Glossary On
Versions: 1 2 3 4 5 6 7 8 9 10 11 12 13 14 15 16 17 18 19 20 21 22 23 24 25 26 27 28 29 30 31 32 33 34 35 36 37 38 39 40 41 42 43 44 45 46 47 48 49 50
257
ASUS43 KBIS 211510
RWRND

NORTH DAKOTA REGIONAL WEATHER ROUNDUP
NATIONAL WEATHER SERVICE BISMARCK ND
1000 AM CDT MON AUG 21 2017

NOTE: "FAIR" INDICATES FEW OR NO CLOUDS BELOW 12,000 FEET WITH NO
SIGNIFICANT WEATHER AND/OR OBSTRUCTIONS TO VISIBILITY.


NDZ001>003-009>011-017-211600-
NORTHWEST NORTH DAKOTA

CITY           SKY/WX    TMP DP  RH WIND       PRES   REMARKS
WILLISTON      SUNNY     67  44  43 N20G28    30.04R
MINOT          CLOUDY    62  53  72 SE6       29.94S
MINOT AFB      CLOUDY    63  52  67 S6        29.93R
$$

NDZ018>021-031>035-040>046-211600-
SOUTHWEST NORTH DAKOTA

CITY           SKY/WX    TMP DP  RH WIND       PRES   REMARKS
BISMARCK       MOSUNNY   66  53  63 S7        29.98S
DICKINSON      SUNNY     67  48  50 NW15      30.01R
GARRISON         N/A     64  53  67 W10       29.96S
HETTINGER ARPT SUNNY     65  53  65 W9        30.05S
$$

NDZ004>008-012>016-024-026-027-054-211600-
NORTHEAST NORTH DAKOTA

CITY           SKY/WX    TMP DP  RH WIND       PRES   REMARKS
GRAND FORKS    CLOUDY    66  52  60 S9        29.95F
GRND FRKS AFB  CLOUDY    65  49  55 S8        29.96F
DEVILS LAKE    CLOUDY    65  56  72 S9        29.97F
$$

NDZ022-023-025-028>030-036>039-047>053-211600-
SOUTHEAST NORTH DAKOTA

CITY           SKY/WX    TMP DP  RH WIND       PRES   REMARKS
FARGO          CLOUDY    64  58  80 SE7       29.96F
JAMESTOWN      CLOUDY    65  55  70 SE12      29.95F
$$





USA.gov is the U.S. government's official web portal to all federal, state and local government web resources and services.